Location: Berg
(47.2344°N, 9.5296°E)
Time: 11:55:28
(UTC+00:00)

AAUSAT CUBESAT 2 - Pass Details

Date: 04 December 2021
Orbit: 571 x 586 km, 97.5° (Epoch: 20 January)

Event Time Altitude Azimuth Distance (km) Brightness Sun altitude
Rises 03:52:35 0° 22° (NNE) 2,798 ? -29.4°
Reaches altitude 10° 03:54:59 10° 34° (NE) 1,896 ? -29.0°
Maximum altitude 03:58:34 29° 95° (E) 1,085 ? -28.4°
Drops below altitude 10° 04:02:09 10° 156° (SSE) 1,890 ? -27.8°
Sets 04:04:31 0° 168° (SSE) 2,786 ? -27.4°
